Flag for Austria Weather past 2 weeks in Hartberg, Styria, Austria

Now
36 °F

Fog.


Feels Like: 33 °F
Forecast: 38 / 55 °F
Wind: 3 mph from North

Location: Graz-Thalerhof-Flughafen

Current Time: Dec 18, 2014 at 5:47:14 AM

Latest Report: Dec 18, 2014 at 4:50 AM


Visibility: 0 mi

Pressure: 29.95 "Hg

Humidity: 100%

Dew point: 36 °F

Location of HartbergLocation

Historic Weather in Hartberg — Graph

°F

Hartberg temperature yesterday

Maximum temperature yesterday: 43 °F (at 11:50 AM)
Minimum temperature yesterday: 36 °F (at 5:20 AM)
Average temperature yesterday: 39 °F

Past Weeks' High & Low Weather Summary

 TemperatureHumidityPressure
High45 °F (Dec 7, 11:20 AM)100% (Dec 3, 6:50 AM)30.27 "Hg (Dec 3, 6:50 AM)
Low23 °F (Dec 10, 6:20 AM)41% (Dec 10, 1:20 AM)29.86 "Hg (Dec 16, 2:20 PM)
Average36 °F92%30.05 "Hg
* Reported Dec 3 4:20 AM — Dec 18 4:20 AM, Hartberg, Weather by CustomWeather, © 2014

Note: Actual official high and low records may vary slightly from our data, if they occured in-between our weather recording intervals... More about our weather records

Advertising

Hartberg weather history for previous 24 hours

 ConditionsComfort  
Time TempWeatherWind HumidityBarometerVisibility
4:20 AM
Dec 18
36 °FFog.1 mph100%29.95 "Hg0 mi
3:50 AM34 °FFog.2 mph100%29.95 "Hg0 mi
3:20 AM34 °FFog.1 mph100%29.92 "Hg0 mi
2:50 AM37 °FFog.1 mph100%29.92 "Hg0 mi
2:20 AM37 °FFog.2 mph100%29.92 "Hg1 mi
1:50 AM37 °FFog.1 mph100%29.92 "Hg1 mi
1:20 AM37 °FFog.2 mph100%29.92 "Hg1 mi
12:50 AM37 °FFog.2 mph100%29.89 "Hg1 mi
12:20 AM37 °FFog.1 mph100%29.89 "Hg1 mi
11:50 PM
Dec 17
37 °FFog.1 mph100%29.89 "Hg1 mi
11:20 PM37 °FSnow. Overcast.2 mph100%29.89 "Hg2 mi
10:50 PM39 °FFog.2 mph100%29.89 "Hg1 mi
10:20 PM39 °FPassing clouds.3 mph100%29.89 "Hg1 mi
9:50 PM39 °FLight rain. Passing clouds.1 mph100%29.89 "Hg1 mi
9:20 PM39 °FPartly cloudy.1 mph100%29.92 "Hg1 mi
8:50 PM37 °FPassing clouds.1 mph100%29.92 "Hg1 mi
8:20 PM37 °FMostly cloudy.1 mph100%29.92 "Hg1 mi
7:50 PM39 °FSnow. Overcast.1 mph100%29.92 "Hg1 mi
7:20 PM39 °FMostly cloudy.1 mph100%29.89 "Hg1 mi
6:50 PM41 °FFog.1 mph93%29.89 "Hg2 mi
6:20 PM41 °FMostly cloudy.2 mph100%29.89 "Hg4 mi
5:50 PM41 °FMostly cloudy.2 mph100%29.89 "Hg4 mi
5:20 PM41 °FMostly cloudy.2 mph100%29.89 "Hg4 mi
4:50 PM43 °FMostly cloudy.3 mph93%29.89 "Hg4 mi
4:20 PM43 °FMostly cloudy.1 mph93%29.89 "Hg4 mi
3:50 PM43 °FMore clouds than sun.1 mph93%29.89 "Hg4 mi
3:20 PM43 °FMore clouds than sun.2 mph93%29.92 "Hg4 mi
2:50 PM43 °FBroken clouds.2 mph93%29.92 "Hg4 mi
2:20 PM43 °FFog.2 mph93%29.92 "Hg3 mi
1:50 PM43 °FFog.2 mph93%29.92 "Hg3 mi
1:20 PM43 °FFog.5 mph93%29.92 "Hg3 mi
12:50 PM43 °FFog.5 mph93%29.95 "Hg2 mi
12:20 PM43 °FFog.5 mph93%29.95 "Hg2 mi
11:50 AM43 °FFog.3 mph93%29.95 "Hg2 mi
11:20 AM41 °FFog.2 mph100%29.95 "Hg1 mi
10:50 AM41 °FFog.2 mph100%29.95 "Hg2 mi
10:20 AM41 °FFog.2 mph93%29.95 "Hg3 mi
9:50 AM39 °FFog.1 mph100%29.95 "Hg2 mi
9:20 AM39 °FPartly sunny.1 mph100%29.95 "Hg1 mi
8:50 AM37 °FPartly sunny.2 mph100%29.95 "Hg1 mi
8:20 AM36 °FFog.2 mph100%29.92 "Hg0 mi
7:50 AM37 °FBroken clouds.1 mph100%29.92 "Hg1 mi
7:20 AM37 °FPartly cloudy.1 mph93%29.92 "Hg1 mi
6:50 AM37 °FPartly cloudy.1 mph100%29.89 "Hg1 mi
6:20 AM37 °FPartly cloudy.2 mph100%29.89 "Hg1 mi
5:50 AM37 °FPassing clouds.2 mph93%29.89 "Hg1 mi
5:20 AM36 °FPartly cloudy.3 mph100%29.89 "Hg1 mi
Weather by CustomWeather, © 2014

See weather overviewHow to use our weather pages